Location: Newark
(25.4800°N, 85.7200°E)
Time: 21:11:14
(UTC+00:00)

Vanguard 3 - Visible Passes

Search period start: 24 August 2019 00:00
Search period end: 03 September 2019 00:00
Orbit: 508 x 3263 km, 33.3° (Epoch: 24 August)

Date Brightness Start Highest point End Pass type
(mag) Time Alt. Az. Time Alt. Az. Time Alt. Az.
24 Aug 7.3 14:25:36 10° WNW 14:29:46 36° N 14:30:04 36° NNE visible
25 Aug 8.1 13:10:28 10° WNW 13:15:48 33° N 13:19:33 10° ENE visible
25 Aug 9.1 15:23:47 10° WNW 15:24:49 17° WNW 15:24:49 17° WNW visible
26 Aug 7.0 14:09:26 10° WNW 14:14:09 45° NNE 14:15:01 38° NE visible
27 Aug 8.5 15:07:49 10° WNW 15:09:47 24° WNW 15:09:47 24° WNW visible
28 Aug 6.9 13:53:07 10° WNW 13:58:29 56° NNE 14:00:01 34° ENE visible
29 Aug 7.9 14:51:47 10° WNW 14:54:49 34° W 14:54:49 34° W visible
30 Aug 6.8 13:36:44 10° WNW 13:42:47 71° NNE 13:45:05 26° E visible
31 Aug 7.5 14:35:42 10° WNW 14:39:56 40° SW 14:39:56 40° SW visible
01 Sep 6.9 13:20:14 10° WNW 13:27:02 87° NNE 13:30:14 18° ESE visible
02 Sep 7.7 14:19:34 10° W 14:24:36 34° SW 14:25:08 33° SSW visible
